TimeEDT,TemperatureF,Dew PointF,Humidity,Sea Level PressureIn,VisibilityMPH,Wind Direction,Wind SpeedMPH,Gust SpeedMPH,PrecipitationIn,Events,Conditions,WindDirDegrees,DateUTC
12:16 AM,57.7,45.7,64,30.08,10.0,SSW,10.4,-,N/A,,Clear,200,2013-09-28 04:16:00
12:37 AM,57.4,45.7,65,30.07,10.0,South,12.7,-,N/A,,Clear,190,2013-09-28 04:37:00
12:56 AM,56.7,45.7,67,30.07,10.0,South,11.5,-,N/A,,Clear,180,2013-09-28 04:56:00
1:16 AM,55.6,46.0,70,30.07,10.0,South,12.7,-,N/A,,Clear,190,2013-09-28 05:16:00
1:37 AM,54.9,46.4,73,30.06,10.0,South,11.5,-,N/A,,Clear,190,2013-09-28 05:37:00
1:56 AM,53.6,46.9,78,30.06,10.0,South,11.5,-,N/A,,Clear,190,2013-09-28 05:56:00
2:17 AM,53.1,47.7,82,30.06,10.0,South,9.2,-,N/A,,Clear,190,2013-09-28 06:17:00
2:37 AM,52.3,48.2,86,30.07,10.0,South,10.4,-,N/A,,Clear,190,2013-09-28 06:37:00
2:56 AM,51.6,48.0,87,30.06,10.0,SSW,6.9,-,N/A,,Clear,210,2013-09-28 06:56:00
3:17 AM,50.0,47.7,92,30.06,10.0,SSW,8.1,-,N/A,,Clear,200,2013-09-28 07:17:00
3:36 AM,50.0,47.8,92,30.06,10.0,SSW,8.1,-,N/A,,Clear,200,2013-09-28 07:36:00
3:57 AM,50.9,49.1,94,30.05,10.0,South,6.9,-,N/A,,Clear,190,2013-09-28 07:57:00
4:16 AM,51.1,49.5,94,30.05,10.0,SSW,8.1,-,N/A,,Clear,200,2013-09-28 08:16:00
4:37 AM,50.2,49.1,96,30.05,10.0,South,6.9,-,N/A,,Clear,190,2013-09-28 08:37:00
4:57 AM,50.2,48.9,95,30.05,7.0,SSW,4.6,-,N/A,,Clear,200,2013-09-28 08:57:00
5:16 AM,50.0,48.7,95,30.04,5.0,SSW,4.6,-,N/A,,Clear,200,2013-09-28 09:16:00
5:37 AM,50.9,50.0,97,30.04,5.0,South,6.9,-,N/A,,Clear,190,2013-09-28 09:37:00
5:56 AM,52.2,51.3,97,30.04,7.0,South,9.2,-,N/A,,Clear,180,2013-09-28 09:56:00
6:50 AM,53.6,53.6,100,30.04,10.0,South,10.4,-,N/A,,Clear,180,2013-09-28 10:50:00
7:50 AM,55.4,53.6,94,30.04,10.0,South,13.8,-,N/A,,Clear,190,2013-09-28 11:50:00
8:50 AM,57.2,55.4,94,30.03,10.0,South,15.0,23.0,N/A,,Clear,190,2013-09-28 12:50:00
9:50 AM,60.8,55.4,82,30.01,10.0,South,18.4,26.5,N/A,,Clear,190,2013-09-28 13:50:00
10:50 AM,64.4,55.4,73,29.99,10.0,South,16.1,21.9,N/A,,Clear,180,2013-09-28 14:50:00
11:50 AM,66.2,55.4,68,29.97,10.0,South,19.6,25.3,N/A,,Clear,180,2013-09-28 15:50:00
12:50 PM,69.8,55.4,60,29.93,10.0,South,19.6,25.3,N/A,,Clear,190,2013-09-28 16:50:00
1:50 PM,71.6,55.4,57,29.89,10.0,South,26.5,38.0,N/A,,Scattered Clouds,180,2013-09-28 17:50:00
2:50 PM,71.6,53.6,53,29.85,10.0,South,24.2,39.1,N/A,,Scattered Clouds,180,2013-09-28 18:50:00
3:50 PM,69.8,53.6,56,29.82,10.0,South,27.6,38.0,N/A,,Scattered Clouds,180,2013-09-28 19:50:00
4:50 PM,69.8,55.4,60,29.81,10.0,South,33.4,43.7,N/A,,Scattered Clouds,190,2013-09-28 20:50:00
5:50 PM,68.0,55.4,64,29.79,10.0,South,25.3,33.4,N/A,,Clear,180,2013-09-28 21:50:00
6:50 PM,66.2,55.4,68,29.78,10.0,South,20.7,28.8,N/A,,Mostly Cloudy,180,2013-09-28 22:50:00
7:55 PM,66.2,55.4,68,29.76,10.0,South,26.5,32.2,N/A,,Scattered Clouds,180,2013-09-28 23:55:00
8:50 PM,64.4,57.2,77,29.75,10.0,South,18.4,29.9,N/A,Rain,Light Rain,190,2013-09-29 00:50:00
9:50 PM,60.8,59.0,94,29.79,4.0,WSW,13.8,-,N/A,Rain,Rain,250,2013-09-29 01:50:00
10:16 PM,59.5,57.2,92,29.81,5.0,SW,13.8,19.6,0.01,Rain,Rain,230,2013-09-29 02:16:00
10:37 PM,58.6,56.7,93,29.80,5.0,WSW,6.9,-,0.03,Rain,Rain,250,2013-09-29 02:37:00
10:56 PM,57.4,54.9,91,29.81,7.0,WNW,11.5,18.4,0.05,Rain,Rain,290,2013-09-29 02:56:00
11:17 PM,56.3,52.9,88,29.82,10.0,West,6.9,-,N/A,,Overcast,280,2013-09-29 03:17:00
11:37 PM,55.4,51.8,88,29.83,10.0,West,5.8,-,N/A,,Mostly Cloudy,280,2013-09-29 03:37:00
11:56 PM,54.9,51.3,88,29.84,10.0,West,5.8,-,N/A,,Mostly Cloudy,280,2013-09-29 03:56:00